SCP
0 0 0 0 0 0 0 0 0 0 0 0 0 0 0 0 0 0 0 0 0 0 0 0 0 0 0 0 0 0 0 0 0 0 0 0 0 0 0 0 0 0 0 0 0 0 0 0 0
0 0 0 0 0 0 0 0 0 0 0 0 0 0 0 0 0 0 0 0 0 0 0 0 0 0 0 0 0 0 0 0 0 0 0 0 0 0 0 0 0 0 0 0 0 0 0 0 0
0 0 0 0 0 0 0 0 0 0 0 0 0 0 0 0 0 0 0 0 0 0 0 0 0 0 0 0 0 0 0 0 0 0 0 0 0 0 0 0 0 0 0 0 0 0 0 0 0
0 0 0 0 0 0 0 0 0 0 0 0 0 0 0 0 0 0 0 0 0 0 0 0 0 0 0 0 0 0 0 0 0 0 0 0 0 0 0 0 0 0 0 0 0 0 0 0 0
0 0 0 0 0 0 0 0 0 0 0 0 0 0 0 0 0 0 0 0 0 0 0 0 0 0 0 0 0 0 0 0 0 0 0 0 0 0 0 0 0 0 0 0 0 0 0 0 0
0 0 0 0 0 0 0 0 0 0 0 0 0 0 0 0 0 0 0 0 0 0 0 0 0 0 0 0 0 0 0 0 0 0 0 0 0 0 0 0 0 0 0 0 0 0 0 0 0
0 0 0 0 0 0 0 0 0 0 0 0 0 0 0 0 0 0 0 0 0 0 0 0 0 0 0 0 0 0 0 0 0 0 0 0 0 0 0 0 0 0 0 0 0 0 0 0 0
0 0 0 0 0 0 0 0 0 0 0 0 0 0 0 0 0 0 0 0 0 0 0 0 0 0 0 0 0 0 0 0 0 0 0 0 0 0 0 0 0 0 0 0 0 0 0 0 0
0 0 0 0 0 0 0 0 0 0 0 0 0 0 0 0 0 0 0 0 0 0 0 0 0 0 0 0 0 0 0 0 0 0 0 0 0 0 0 0 0 0 0 0 0 0 0 0 0
0 0 0 0 0 0 0 0 0 0 0 0 0 0 0 0 0 0 0 0 0 0 0 0 0 0 0 0 0 0 0 0 0 0 0 0 0 0 0 0 0 0 0 0 0 0 0 0 0
0 0 0 0 0 0 0 0 0 0 0 0 0 0 0 0 0 0 0 0 0 0 0 0 0 0 0 0 0 0 0 0 0 0 0 0 0 0 0 0 0 0 0 0 0 0 0 0 0
0 0 0 0 0 0 0 0 0 0 0 0 0 0 0 0 0 0 0 0 0 0 0 0 0 0 0 0 0 0 0 0 0 0 0 0 0 0 0 0 0 0 0 0 0 0 0 0 0
0 0 0 0 0 0 0 0 0 0 0 0 0 0 0 0 0 0 0 0 0 0 0 0 0 0 0 0 0 0 0 0 0 0 0 0 0 0 0 0 0 0 0 0 0 0 0 0 0
0 0 0 0 0 0 0 0 0 0 0 0 0 0 0 0 0 0 0 0 0 0 0 0 0 0 0 0 0 0 0 0 0 0 0 0 0 0 0 0 0 0 0 0 0 0 0 0 0
0 0 0 0 0 0 0 0 0 0 0 0 0 0 0 0 0 0 0 0 0 0 0 0 0 0 0 0 0 0 0 0 0 0 0 0 0 0 0 0 0 0 0 0 0 0 0 0 0
0 0 0 0 0 0 0 0 0 0 0 0 0 0 0 0 0 0 0 0 0 0 0 0 0 0 0 0 0 0 0 0 0 0 0 0 0 0 0 0 0 0 0 0 0 0 0 0 0
0 0 0 0 0 0 0 0 0 0 0 0 0 0 0 0 0 1 1 1 0 0 0 0 0 0 0 0 0 0 0 0 0 0 0 0 0 0 0 0 0 0 0 0 0 0 0 0 0
0 0 0 0 0 0 0 0 0 0 0 0 0 0 0 0 0 1 1 1 1 0 0 0 0 0 0 0 0 0 0 0 0 0 0 0 0 0 0 0 0 0 0 0 0 0 0 0 0
0 0 0 0 0 0 0 0 0 0 0 0 0 0 0 0 1 1 1 1 1 0 0 0 0 0 0 0 0 0 0 0 0 0 0 0 0 0 0 0 0 0 0 0 0 0 0 0 0
0 0 0 0 0 0 0 0 0 0 0 0 0 0 0 0 0 1 1 1 1 0 0 0 0 0 0 0 0 0 0 0 0 0 0 0 0 0 0 0 0 0 0 0 0 0 0 0 0
0 0 0 0 0 0 0 0 0 0 0 0 0 0 0 0 0 1 1 1 1 1 0 0 0 0 0 0 0 0 0 0 0 0 0 0 0 0 0 0 0 0 0 0 0 0 0 0 0
0 0 0 0 0 0 0 0 0 0 0 0 0 0 0 0 0 1 1 1 1 1 0 0 0 0 0 0 0 0 0 0 0 0 0 0 0 0 0 0 0 0 0 0 0 0 0 0 0
0 0 0 0 0 0 0 0 0 0 0 0 0 0 1 1 0 1 1 1 1 1 0 0 0 0 0 0 0 0 0 0 0 0 0 0 0 0 0 0 0 0 0 0 0 0 0 0 0
0 0 0 0 0 0 0 0 0 0 0 0 0 0 1 1 0 0 1 1 1 1 1 0 0 0 0 0 0 0 0 0 0 0 0 0 0 0 0 0 0 0 0 0 0 0 0 0 0
0 0 0 0 0 0 0 0 0 0 0 0 0 0 1 1 0 0 1 1 1 1 1 1 0 0 0 0 0 0 0 0 0 0 0 0 0 0 0 0 0 0 0 0 0 0 0 0 0
0 0 0 0 0 0 0 0 0 0 0 0 0 0 0 0 0 0 1 1 1 1 1 1 1 0 0 0 0 0 0 0 0 0 0 0 0 0 0 0 0 0 0 0 0 0 0 0 0
0 0 0 0 0 0 0 0 0 0 0 0 0 0 0 0 0 0 1 1 1 1 1 1 1 1 0 0 0 0 0 0 0 0 0 0 0 0 0 0 0 0 0 0 0 0 0 0 0
0 0 0 0 0 0 0 0 0 0 0 0 0 0 0 0 0 0 1 1 1 1 1 1 1 1 0 0 0 0 0 0 0 0 0 0 0 0 0 0 0 0 0 0 0 0 0 0 0
0 0 0 0 0 0 0 0 0 0 0 0 0 1 1 0 0 0 1 1 1 1 1 1 1 1 0 0 0 0 0 0 0 0 0 0 0 0 0 0 0 0 0 0 0 0 0 0 0
0 0 0 0 0 0 0 0 0 0 0 0 0 1 1 1 1 1 1 1 1 1 1 1 1 1 1 0 0 0 0 0 0 0 0 0 0 0 0 0 0 0 0 0 0 0 0 0 0
Wind_Speed
8 6 3 1 4 5 6 6 9 10 8 9 10 10 9 8 5 6 3 7 8 6 5 7 11 13 14 14 14 14 14 15 15 15 15 15 15 15 15 15 14 15 15 15 15 15 16 15 15
5 4 1 3 5 5 5 7 13 12 12 11 11 12 10 9 8 9 5 7 8 7 5 7 11 13 14 14 14 14 15 15 15 15 15 15 15 15 15 15 14 14 14 14 14 14 15 14 13
5 3 2 3 3 6 6 8 13 12 11 9 7 7 7 6 7 6 7 10 8 6 5 7 13 13 14 13 13 14 14 15 15 15 15 15 14 14 14 14 13 13 13 13 13 13 13 12 12
3 2 3 5 5 5 9 10 13 13 11 10 9 8 6 6 6 10 12 11 10 6 5 8 13 14 14 13 13 13 14 14 14 14 14 14 14 14 13 13 12 12 12 12 12 12 12 11 11
2 3 5 5 6 7 11 14 13 12 9 10 11 10 7 6 14 15 13 11 10 6 5 7 13 13 13 13 12 13 13 13 13 13 13 13 13 13 13 12 12 12 12 12 12 11 11 10 9
2 3 4 5 8 8 10 14 16 16 15 13 12 10 5 8 13 13 12 10 9 8 6 7 12 13 13 12 12 12 13 12 12 11 11 12 12 12 12 12 11 11 11 11 11 11 10 9 8
3 3 3 6 8 8 9 11 13 14 13 9 10 8 5 7 10 12 11 10 8 8 6 5 5 8 11 11 11 12 12 11 11 11 11 11 11 11 11 10 10 11 11 11 10 10 9 8 7
4 4 3 4 8 8 9 9 11 14 11 12 8 7 7 8 10 12 11 9 8 6 5 5 4 4 4 5 9 10 11 11 10 11 11 10 10 9 9 8 9 10 10 9 9 8 8 6 5
3 4 3 5 8 8 11 14 10 10 12 7 7 9 12 13 13 12 10 7 6 6 4 4 4 4 4 4 7 7 9 9 8 7 9 7 3 3 4 6 8 8 8 7 7 7 6 4 3
4 5 5 6 9 11 13 14 10 10 12 11 11 11 12 12 13 12 10 9 7 6 5 4 4 4 3 4 4 2 3 3 3 2 3 2 2 1 3 5 7 7 6 6 5 4 3 2 1
4 6 5 8 10 12 11 10 8 13 11 14 15 14 12 11 10 10 9 8 8 7 7 5 5 5 4 2 3 1 1 1 2 2 2 2 1 1 1 1 2 2 3 2 2 1 1 1 1
6 5 7 7 9 10 10 9 9 10 11 13 14 13 11 11 10 9 8 7 7 7 7 6 5 5 4 4 3 3 2 1 1 2 3 2 1 2 2 1 1 1 1 1 1 1 1 1 1
7 6 8 9 9 10 12 11 11 10 12 13 13 13 11 11 9 8 8 8 7 7 6 5 5 5 4 4 3 4 3 3 2 2 2 3 2 2 2 2 1 1 1 2 2 1 2 2 1
5 7 9 9 10 11 16 11 9 10 12 13 13 11 11 11 10 8 8 7 7 7 6 4 5 5 5 4 3 3 3 2 2 2 2 3 3 2 2 2 2 2 2 2 2 2 2 1 1
5 8 6 6 8 8 13 8 10 12 12 11 11 10 10 9 10 10 9 8 8 7 6 5 5 4 4 4 3 3 2 3 2 2 2 2 3 3 2 2 2 2 2 2 1 1 1 1 2
5 5 3 1 5 5 10 7 8 12 13 11 11 11 9 8 9 10 10 8 8 8 7 5 6 5 4 3 3 2 2 3 2 2 2 3 3 3 2 2 1 1 1 2 2 2 2 1 2
4 2 2 2 3 5 6 7 9 10 13 11 11 10 10 8 8 8 9 9 8 8 7 6 5 5 4 3 2 2 2 2 2 2 1 2 2 3 2 2 1 1 2 1 2 2 2 2 2
3 3 3 5 4 5 6 7 11 11 12 12 11 10 10 10 9 9 9 9 8 6 6 6 5 4 4 2 2 2 2 1 1 2 2 2 1 2 2 2 1 2 2 1 2 2 2 2 2
6 4 4 4 3 5 7 9 12 11 11 10 9 10 10 10 9 9 10 10 8 7 6 6 5 4 3 2 2 1 1 0 0 1 1 2 1 2 2 1 1 2 2 2 2 2 2 1 2
5 5 3 1 3 4 5 6 9 11 13 13 13 11 11 9 8 9 9 8 8 7 7 6 6 5 4 3 2 2 2 1 1 0 0 1 1 2 2 2 2 2 2 1 2 2 2 1 1
4 7 6 5 2 3 5 0 4 6 6 8 10 11 11 14 13 11 10 9 8 8 8 7 6 5 4 3 2 2 2 2 1 1 1 1 1 1 2 2 2 2 2 2 2 2 3 1 1
5 7 7 6 5 1 4 2 5 6 7 9 10 10 12 12 12 11 11 10 10 9 8 7 6 5 4 4 3 3 3 2 2 1 1 0 1 1 1 2 2 2 2 2 2 2 2 2 1
7 6 5 5 5 2 1 4 5 4 7 10 11 13 13 13 13 13 12 11 10 10 8 7 6 5 4 4 4 4 2 2 1 1 1 0 1 1 1 2 2 2 1 1 1 1 1 1 2
5 5 6 5 5 1 3 4 5 7 12 11 11 13 13 13 13 12 11 9 8 8 7 7 6 5 4 4 4 4 4 3 3 2 1 0 1 1 1 2 2 1 1 1 1 1 1 1 1
5 7 4 4 4 4 3 3 8 9 10 13 13 13 12 13 13 11 11 10 9 9 8 7 7 5 5 5 4 4 4 4 4 3 2 1 0 0 0 2 2 1 1 1 1 1 1 1 1
5 10 9 6 5 4 1 4 7 7 8 10 11 12 12 11 12 12 13 12 11 11 9 8 8 6 5 5 4 4 4 3 2 3 2 2 1 1 1 2 2 2 2 2 2 2 1 1 1
5 4 8 8 2 1 3 3 6 0 5 7 9 10 12 12 13 13 12 12 12 12 11 10 9 7 6 5 5 4 4 3 3 2 2 2 2 2 2 2 2 2 3 2 2 2 1 2 2
8 8 6 6 5 1 3 3 5 5 6 7 10 12 12 12 13 13 12 11 11 10 10 10 9 8 6 5 5 4 4 4 3 3 3 3 2 2 3 3 2 2 2 2 2 2 2 2 1
3 4 6 5 6 7 3 7 8 11 10 11 11 12 13 13 14 12 11 11 10 9 9 9 8 6 6 5 5 4 4 4 4 3 3 3 3 3 3 3 3 2 2 2 2 2 2 3 2
7 7 8 7 4 5 5 8 6 9 9 10 11 10 10 11 11 10 10 10 9 9 9 8 8 7 6 6 5 5 4 4 4 3 3 3 3 3 3 3 3 3 2 2 3 2 3 3 3
Wind_Direction
161 156 155 96 53 59 82 90 96 82 68 63 72 77 75 62 89 119 145 132 123 111 101 101 99 98 95 94 94 95 95 101 104 104 105 105 105 105 105 103 104 107 111 110 110 112 114 116 117
155 156 116 61 80 87 88 101 95 96 111 104 83 79 72 68 84 110 121 126 119 112 103 108 107 103 100 98 96 95 95 99 105 106 107 107 106 106 105 105 106 108 111 113 115 116 116 118 119
162 172 97 71 89 118 119 110 106 104 102 96 88 65 63 87 98 113 132 128 113 104 101 115 113 109 105 102 99 98 98 99 103 107 109 109 108 107 106 106 106 110 114 118 119 120 120 120 119
149 89 52 77 99 120 123 121 114 105 84 76 90 75 67 92 104 122 129 124 112 104 103 116 116 113 110 107 104 103 102 102 104 105 108 109 109 108 108 107 108 111 115 121 123 123 123 120 119
92 82 63 75 101 108 113 117 113 103 93 91 94 98 88 86 112 123 128 126 120 114 108 115 118 118 116 112 110 108 107 105 106 108 110 111 110 110 110 110 109 112 116 120 124 123 123 124 122
71 76 77 93 102 107 112 116 109 105 109 108 103 103 99 119 121 131 130 127 126 125 116 117 123 121 119 117 115 113 110 109 109 111 111 113 112 111 111 110 110 115 120 123 126 125 122 121 120
118 102 118 118 112 114 122 123 117 121 121 118 120 104 113 127 131 133 130 126 124 125 122 115 122 125 127 123 123 120 116 113 114 117 117 117 118 116 115 113 113 116 123 126 128 127 125 126 124
150 103 94 106 114 114 117 110 122 124 117 130 124 118 144 151 131 126 127 126 127 128 129 127 121 115 119 125 131 127 125 123 121 120 122 124 125 123 120 117 119 121 124 128 130 132 133 131 128
115 90 127 139 129 125 120 108 108 104 116 118 104 121 145 140 127 121 120 120 129 136 141 141 136 131 131 130 134 130 131 130 129 124 127 123 108 114 123 128 131 132 134 135 138 138 137 136 135
117 135 178 157 138 135 127 121 120 110 110 108 108 117 131 131 129 130 136 140 144 150 157 153 153 152 148 143 123 123 131 129 126 127 130 117 119 129 144 145 146 142 139 138 141 145 144 137 123
124 141 137 121 129 131 128 124 115 122 129 138 137 140 138 130 132 138 144 148 152 156 157 156 157 158 161 144 134 143 131 131 142 156 163 146 141 146 131 119 133 130 135 120 129 144 151 153 156
104 116 120 120 118 121 125 123 117 130 147 148 144 143 140 141 144 146 147 146 143 142 151 159 158 154 158 147 150 156 153 151 163 177 166 152 144 148 153 156 158 142 135 150 168 150 179 189 195
107 111 112 112 105 114 111 116 118 126 138 140 137 135 141 143 145 146 144 139 137 137 140 148 147 143 142 139 150 148 161 166 174 159 164 157 150 158 158 163 163 175 177 179 183 189 187 190 190
134 112 113 117 109 116 117 121 112 137 140 139 140 141 146 145 144 142 140 138 138 136 137 137 138 142 137 137 141 145 154 161 155 151 164 160 155 157 155 158 166 181 191 191 187 189 177 170 144
90 91 86 119 112 124 110 105 135 149 142 141 146 147 147 148 146 150 152 147 144 144 142 142 139 131 129 127 135 136 146 140 140 146 148 160 155 152 148 157 174 198 189 178 152 131 106 117 115
58 71 91 203 120 136 111 144 164 155 149 149 154 154 149 154 156 156 152 147 146 145 147 151 141 130 130 128 124 131 136 137 141 144 146 168 164 155 151 149 176 189 152 140 136 127 109 91 92
37 102 166 240 166 139 116 157 174 167 156 159 161 160 156 159 158 157 156 153 152 152 152 150 142 143 145 141 122 128 131 140 150 148 157 176 165 156 151 148 169 155 128 130 146 129 129 121 109
214 185 195 208 204 140 136 164 167 174 167 167 164 161 160 163 166 162 158 156 154 152 146 145 144 145 140 120 93 83 89 118 138 158 175 173 171 163 152 154 154 137 119 117 119 131 131 137 134
174 188 213 220 183 139 161 165 172 175 172 171 168 168 168 171 169 161 160 157 152 148 143 143 145 155 139 118 115 113 137 168 160 189 177 168 165 162 139 130 121 124 133 148 137 134 130 133 125
168 183 215 259 150 136 155 179 182 179 181 179 177 177 174 169 165 167 165 163 161 162 156 148 156 164 161 157 161 165 163 182 180 156 105 154 153 169 151 146 151 145 135 129 135 135 135 190 160
203 186 188 177 102 85 111 160 192 193 183 184 184 179 175 175 176 175 171 171 166 167 167 165 166 168 171 162 132 101 72 46 46 41 15 27 117 129 134 143 144 144 146 160 171 162 156 185 232
219 210 179 168 127 171 144 180 245 197 192 192 190 184 181 180 176 175 172 173 176 176 170 166 166 168 169 155 148 148 151 162 201 189 178 352 85 117 138 137 136 140 148 163 187 168 167 161 200
195 185 155 153 133 101 63 132 259 178 200 205 196 192 184 181 175 177 179 177 177 173 169 168 164 168 167 159 158 153 154 174 173 136 123 48 25 62 103 124 126 131 146 162 159 156 163 168 181
156 82 50 53 74 78 222 152 246 202 201 200 194 191 183 178 176 179 178 169 168 167 165 165 165 173 171 163 158 158 160 157 145 151 153 136 24 26 62 103 104 111 115 125 152 152 154 156 158
112 99 53 16 17 250 219 163 237 221 197 189 187 188 181 176 175 174 170 169 169 168 168 167 167 174 178 169 166 164 160 154 158 168 169 158 114 40 40 96 97 90 87 75 94 95 83 104 122
169 139 151 171 204 260 285 213 250 223 192 184 180 177 172 172 174 175 176 172 170 170 171 169 169 174 177 171 166 158 154 151 157 165 159 159 162 174 144 115 102 82 72 69 77 84 55 74 84
149 156 158 132 153 123 283 283 311 119 149 165 168 164 171 176 176 178 179 174 172 172 176 174 171 173 174 170 160 153 152 149 150 150 150 150 153 148 128 117 104 86 78 75 78 66 43 67 73
154 150 101 114 137 183 278 245 220 211 190 178 172 173 177 174 176 180 180 176 175 175 175 173 171 173 169 167 165 161 157 153 145 128 125 126 123 119 117 112 103 90 82 77 76 65 57 70 53
139 119 117 123 145 152 202 258 219 198 193 182 181 176 176 175 176 178 179 177 172 170 169 168 168 162 164 167 164 155 156 150 135 133 141 138 130 126 117 115 108 96 78 71 82 77 76 76 53
164 168 145 146 191 160 162 258 244 190 183 172 169 169 170 172 173 171 167 164 164 165 165 165 166 166 169 164 157 156 153 143 140 146 147 135 128 125 122 116 108 105 90 81 90 93 78 79 70